Wind_Speed
30 31 31 30 28 26 24 22 21 21 21 19 18 16 15 14 13 13 14 15 16 16 17 17 17 17 17 16 14 14 11 10 10 12 14 11 7 10 12 8 11 16 20 18 17 19 18 17 18 16 13 11 9 8 9 9 7 6 5 5 3 1 2 1 5 1 9 4 5 9 7 7 9 7 6 7 9 9 8 7 9 7 9 13 18 26 30 30
31 31 31 31 30 27 25 23 21 21 20 20 18 16 15 15 14 14 15 16 16 17 17 17 18 18 18 16 13 12 10 10 14 14 16 13 7 8 12 11 11 20 24 19 21 22 18 16 18 16 11 9 8 9 9 7 8 7 5 6 2 3 7 8 4 4 8 6 6 8 6 5 7 7 6 6 8 9 8 9 10 10 13 16 21 27 30 30
31 31 31 31 31 29 26 24 22 21 20 20 18 16 16 15 15 14 15 17 17 18 18 18 19 19 18 13 12 9 8 12 13 8 7 10 10 8 8 12 15 24 26 20 21 22 17 17 18 16 11 9 8 10 10 7 8 8 7 6 2 1 10 7 1 5 5 2 6 8 5 4 6 6 6 6 8 8 8 9 9 12 14 16 20 25 30 30
31 31 31 31 31 30 27 24 22 21 20 19 18 17 16 16 15 15 16 17 18 19 18 19 19 18 15 10 9 5 7 12 4 6 5 4 11 11 9 14 20 26 27 20 19 20 17 16 15 14 11 9 9 10 10 7 7 7 8 6 1 4 7 1 4 5 4 3 4 7 5 6 6 5 5 6 7 5 7 10 10 14 17 18 20 22 27 28
30 31 31 32 31 30 27 25 22 21 19 18 18 18 18 17 16 16 17 17 18 20 18 18 18 15 11 8 6 4 7 6 4 9 9 8 8 9 9 16 23 27 27 20 18 19 17 15 13 13 10 9 9 9 10 10 8 7 10 9 7 7 2 2 2 5 3 2 4 5 5 6 6 5 4 5 6 2 4 11 11 16 19 19 22 22 24 25
30 31 32 32 32 30 28 25 22 20 18 17 17 18 18 19 19 18 18 19 19 19 18 17 14 9 7 7 4 5 9 2 6 8 11 11 6 7 10 18 25 26 26 21 19 19 17 15 13 12 10 10 11 10 10 11 10 8 9 10 10 6 1 3 0 4 2 1 3 3 2 4 6 7 4 3 4 2 4 12 13 16 19 20 22 22 23 23
30 31 31 32 32 30 27 25 22 19 18 17 17 18 19 20 20 20 19 19 19 18 16 13 7 4 6 7 4 7 10 2 7 9 14 14 6 5 11 21 27 25 24 22 20 18 16 16 15 12 10 10 12 12 11 11 13 11 11 9 8 6 4 5 1 1 3 1 1 0 1 4 6 6 6 6 3 5 7 13 14 16 19 20 22 22 22 22
30 31 31 32 32 30 27 24 21 19 18 18 18 19 20 21 21 20 19 18 16 14 10 6 2 3 6 6 6 8 7 1 7 9 14 13 5 6 15 22 25 24 24 23 20 18 17 17 16 12 11 11 10 11 12 11 12 13 13 11 7 6 6 5 4 4 5 3 3 3 4 6 6 4 6 10 6 7 9 14 15 16 18 19 20 22 21 21
31 31 32 32 32 30 27 23 20 18 19 19 20 20 21 21 20 18 16 14 11 9 5 2 1 3 5 5 9 7 1 6 7 7 9 8 2 11 19 20 24 24 22 22 21 19 16 15 16 14 12 11 11 12 12 11 10 11 15 14 10 8 7 7 7 8 7 5 5 6 8 6 6 5 4 9 10 9 10 14 16 17 18 17 18 21 21 21
30 31 32 33 33 30 26 22 18 18 18 19 21 22 22 20 17 14 11 8 6 5 4 3 2 3 5 7 10 5 5 7 5 6 6 4 6 14 17 18 23 22 19 19 20 20 15 13 15 13 11 10 11 12 12 12 8 7 11 13 13 12 9 8 9 9 9 8 6 6 8 6 8 7 5 8 13 13 13 14 16 16 17 17 17 19 20 20
30 31 32 33 33 30 26 21 17 17 18 19 21 22 20 16 13 10 6 4 3 6 7 6 4 5 7 8 9 3 7 6 5 4 3 3 7 13 14 15 21 20 17 17 17 19 17 16 14 10 9 8 9 12 12 13 11 9 9 10 12 13 12 12 12 11 10 8 7 7 10 7 8 9 6 9 14 14 14 15 16 15 15 16 17 18 17 17
29 30 31 33 33 30 26 21 17 16 18 20 22 21 16 13 12 8 4 2 4 11 9 6 5 5 8 9 6 6 9 5 3 2 1 3 5 10 12 13 18 18 15 14 15 18 18 17 14 12 9 5 8 9 8 11 14 14 12 11 11 13 14 15 15 14 12 9 10 10 10 8 10 10 7 10 15 14 15 15 15 15 14 15 17 16 15 17
29 30 31 33 32 30 26 21 17 16 19 21 22 20 14 13 11 6 4 4 8 14 6 3 4 6 8 5 1 6 7 3 1 2 2 2 5 9 11 12 14 17 15 13 14 16 18 17 15 15 11 6 8 4 4 7 11 13 13 10 10 11 13 15 15 15 15 12 12 12 8 6 11 12 10 11 15 15 15 15 14 14 14 14 15 15 15 18
29 30 31 32 31 29 25 20 16 15 19 21 23 19 13 13 9 6 6 6 11 12 1 1 3 6 8 2 6 5 3 1 3 3 2 4 6 8 11 12 12 15 15 13 12 12 16 17 15 14 12 11 10 5 4 7 9 10 12 10 9 9 10 14 15 16 16 13 14 14 6 6 11 12 14 14 15 15 14 15 15 14 14 14 15 15 16 17
28 29 31 31 31 28 24 20 15 14 18 21 23 18 12 13 8 7 7 7 11 7 1 1 4 7 8 3 6 2 1 3 3 1 2 5 7 7 10 12 12 14 13 12 11 10 13 16 14 11 11 13 12 9 6 8 8 9 10 9 10 10 9 13 16 17 16 13 16 15 7 6 6 9 14 15 15 16 14 15 15 15 16 15 15 15 15 17
28 29 30 31 31 27 23 19 15 14 18 20 22 16 11 12 8 8 8 8 11 3 3 4 6 8 7 1 4 4 3 3 3 3 5 6 7 6 9 11 12 13 11 10 10 10 11 12 11 10 11 11 12 10 7 8 9 9 10 10 11 12 10 11 13 17 18 14 16 16 9 5 4 11 14 18 16 16 14 15 16 15 16 16 14 15 15 16
27 28 29 31 30 27 22 18 14 14 17 20 20 13 10 11 6 8 9 10 8 3 6 8 6 7 6 2 2 4 5 7 6 5 6 7 7 6 8 11 12 12 10 11 10 9 9 9 8 9 10 10 10 9 8 9 10 9 10 10 12 14 12 10 10 14 17 15 15 16 12 8 9 12 14 19 18 16 14 14 16 15 15 15 14 15 15 16
27 27 29 30 30 27 21 17 14 13 16 18 17 13 12 11 7 9 12 10 7 7 8 8 7 5 4 1 2 4 9 8 5 4 6 7 8 7 9 10 10 12 11 10 10 10 9 9 8 9 9 10 11 11 11 11 11 11 11 10 12 13 13 14 10 11 17 17 15 15 14 11 13 13 15 18 17 16 14 14 15 15 15 15 14 15 15 16
28 27 29 30 31 28 22 17 13 11 16 17 16 16 14 11 8 10 13 11 8 6 4 3 4 4 2 3 5 7 8 5 3 3 7 9 9 10 11 10 10 13 11 9 11 12 9 8 10 10 10 13 14 14 14 14 13 12 13 12 13 12 12 15 13 11 16 16 15 15 14 13 13 14 15 15 16 15 14 13 13 14 15 15 14 14 15 16
28 28 29 29 31 29 23 16 11 11 13 16 20 17 9 6 5 5 7 9 5 5 6 3 4 6 4 4 7 10 6 4 3 2 6 9 9 11 12 10 11 12 11 10 11 12 11 10 11 12 14 16 18 18 17 17 14 10 11 13 14 14 12 13 15 13 14 13 15 16 16 14 14 13 10 10 14 16 14 14 13 13 14 14 15 15 15 15
29 29 28 28 29 28 23 15 9 11 12 15 20 12 2 7 6 4 7 7 4 2 6 3 4 5 4 5 7 9 5 2 2 3 4 8 10 10 10 10 12 10 12 13 11 11 12 11 14 17 18 17 17 18 17 18 16 11 10 11 11 14 13 12 15 13 12 9 12 15 16 15 16 15 13 14 16 16 16 16 14 15 15 14 14 15 15 14
29 29 29 28 27 25 23 16 9 11 12 12 12 6 6 8 8 8 9 7 4 3 5 3 4 5 2 2 3 6 8 5 3 5 4 8 11 10 9 10 12 10 12 14 10 10 12 13 17 19 18 16 15 17 18 18 16 12 9 11 9 10 13 12 14 15 12 8 10 14 15 14 17 17 17 19 18 14 15 15 14 15 15 14 14 14 14 15
29 29 29 27 26 23 21 16 9 8 10 10 7 7 7 7 7 9 7 8 6 5 7 5 5 3 2 1 1 5 10 5 1 6 5 8 9 9 8 9 12 12 13 15 12 10 10 12 18 18 16 17 17 15 17 16 14 12 10 10 9 9 11 9 11 16 12 7 9 12 13 12 15 17 17 18 17 16 16 16 15 16 15 15 15 13 14 16
28 28 28 27 26 21 18 16 9 6 6 6 4 7 7 7 8 10 7 8 6 6 5 2 3 3 4 2 3 7 6 2 3 3 4 9 8 7 9 9 11 13 12 16 17 15 12 11 15 19 17 17 18 15 15 13 11 14 13 11 11 11 12 10 11 14 11 9 11 12 10 9 12 15 15 15 17 18 17 17 16 15 16 15 16 15 15 17
27 27 27 27 25 19 17 12 6 4 7 5 2 8 9 8 8 9 7 7 5 5 6 3 3 1 2 3 5 6 5 3 4 1 2 8 7 5 7 8 9 11 13 17 18 15 14 13 13 17 19 18 17 15 15 13 9 12 16 14 14 14 13 13 14 12 8 10 13 13 10 8 11 15 15 15 17 18 16 18 18 16 16 16 15 15 16 17
26 26 27 26 24 19 13 7 4 8 9 3 5 10 10 9 8 7 6 6 4 6 7 5 3 1 0 2 2 4 4 4 2 1 2 4 6 7 6 6 7 10 14 14 12 9 11 15 12 12 18 20 18 15 15 14 10 9 12 15 17 17 15 14 15 11 8 8 12 15 12 8 10 15 16 15 17 19 18 18 19 17 15 15 13 14 15 16
26 25 27 25 19 15 10 7 11 12 7 4 10 12 11 9 7 5 5 6 4 4 5 4 1 1 1 2 4 6 3 1 3 5 3 1 4 7 7 8 8 9 11 9 8 8 11 17 15 13 16 17 16 14 14 15 12 8 8 11 15 18 18 16 14 11 9 9 11 15 15 10 10 12 16 19 19 19 19 19 19 17 16 16 15 16 17 18
26 24 26 22 12 7 8 10 13 10 5 9 11 12 11 8 6 5 6 5 3 3 2 4 3 2 3 4 6 7 5 4 5 4 3 3 5 6 8 11 11 10 11 10 9 9 12 18 18 16 15 14 13 12 14 16 13 11 10 7 8 13 17 17 13 10 9 10 10 13 15 12 10 10 14 20 21 20 21 21 20 19 18 18 17 16 17 18
26 24 23 19 7 3 6 8 10 8 8 10 11 12 11 7 6 5 6 4 3 3 0 2 2 2 4 6 5 4 5 4 4 2 2 7 6 7 8 8 11 13 12 13 12 10 10 15 18 15 12 12 13 13 15 17 13 13 12 5 3 7 11 13 13 10 10 12 11 15 16 11 8 10 12 14 18 20 20 19 20 20 18 17 16 17 19 18
27 24 21 15 6 4 7 8 8 8 10 11 12 13 10 6 6 6 6 3 4 4 1 1 1 1 5 7 6 2 4 4 3 5 6 7 7 7 8 7 9 11 11 12 14 14 12 12 14 13 11 11 14 14 16 17 14 13 13 8 6 8 8 9 10 9 10 12 14 18 19 13 9 9 11 13 13 15 17 17 18 19 17 17 16 16 17 17
26 22 18 11 6 6 8 6 3 9 11 12 13 13 9 5 5 7 4 0 3 3 2 2 1 1 4 6 2 2 3 3 3 6 6 5 7 9 8 7 7 7 9 10 11 14 17 14 10 11 12 12 14 14 13 14 14 12 11 9 8 8 8 8 8 9 10 11 13 17 21 18 12 8 10 13 14 14 15 16 18 20 19 19 17 15 15 16
23 20 16 8 7 6 8 7 11 13 12 12 12 9 7 5 7 7 2 2 2 2 2 3 3 2 4 5 2 3 4 2 1 5 5 4 5 4 3 3 3 5 7 8 9 12 15 16 13 11 13 14 13 12 11 12 12 12 10 10 9 8 7 9 9 10 10 11 12 16 19 17 13 11 12 13 15 17 16 14 16 20 21 20 18 16 16 14
21 17 11 4 7 7 9 9 11 12 11 11 11 6 6 6 5 3 1 2 1 5 3 1 2 2 5 5 1 3 5 3 3 4 3 5 6 2 1 5 7 7 6 6 9 10 10 15 18 16 12 14 15 12 10 10 11 12 11 10 10 9 8 10 10 9 10 11 13 16 16 14 12 13 16 16 14 15 16 15 15 18 19 19 18 18 16 15
17 10 5 4 8 9 10 10 9 10 11 10 8 5 7 8 3 1 2 4 5 3 2 1 4 4 4 3 3 4 4 2 1 5 4 5 8 5 4 3 6 8 9 8 8 9 10 11 16 17 12 13 17 16 13 11 11 12 12 11 10 9 8 8 8 9 10 9 14 17 14 12 11 10 14 18 16 15 14 15 16 18 18 18 17 17 16 16
14 5 3 6 10 10 9 10 9 9 9 7 6 6 8 7 2 1 2 5 4 0 1 0 6 7 5 3 3 2 3 1 2 4 5 4 5 4 2 5 7 7 7 7 6 7 12 10 11 19 18 15 17 17 16 14 11 11 12 12 11 10 9 8 8 10 10 9 11 13 10 9 8 7 11 16 18 19 14 10 12 15 16 17 16 17 17 16
12 4 4 7 7 8 9 9 7 7 8 6 7 7 3 1 4 4 4 3 3 4 4 3 5 6 4 3 4 5 1 3 2 3 4 3 3 3 5 6 6 8 7 6 6 7 9 11 9 13 20 21 18 16 17 16 11 9 12 12 11 12 12 10 9 10 11 11 9 9 10 10 8 8 12 14 17 21 18 12 12 12 13 16 17 17 16 15
12 6 4 4 7 10 8 6 4 6 7 6 6 4 2 4 5 5 3 3 3 3 7 6 2 2 4 2 2 5 2 4 2 2 3 4 2 1 3 3 4 6 9 8 7 7 6 9 10 7 12 19 18 17 18 19 16 10 10 11 12 13 13 10 8 8 10 10 8 9 12 12 10 8 10 13 14 17 19 19 18 15 14 15 15 16 17 17
13 8 4 2 9 10 6 4 4 5 6 7 5 1 4 4 5 5 3 3 3 3 7 5 2 1 4 4 1 3 4 5 1 1 4 3 4 1 2 2 3 6 8 9 7 6 7 9 8 6 9 12 15 16 15 18 22 18 11 9 10 11 12 10 8 8 10 9 7 10 12 11 10 9 10 15 17 17 17 18 20 20 19 17 16 16 19 19
14 8 2 6 10 8 4 4 5 6 6 7 4 1 2 3 6 5 2 2 3 4 5 3 2 1 2 3 6 2 1 5 5 3 3 0 2 2 4 2 4 7 8 9 9 6 6 8 8 7 10 11 11 12 12 13 18 20 16 11 10 10 11 10 9 8 8 8 8 10 11 8 8 9 11 15 18 19 19 17 17 19 19 19 18 17 18 18
11 6 2 11 12 6 5 8 7 7 6 3 3 2 4 3 4 3 3 4 3 3 5 4 1 3 0 3 5 2 2 4 6 4 2 1 1 3 5 5 5 9 10 10 10 7 6 7 8 9 11 11 10 10 12 12 12 15 14 11 11 10 10 10 10 9 9 8 7 7 8 8 8 10 12 12 11 14 18 17 16 17 18 18 18 17 17 17
8 4 5 14 13 6 8 9 5 5 4 1 3 3 3 3 2 4 3 4 4 2 4 5 3 3 3 3 4 1 2 4 4 5 5 4 3 2 5 6 7 9 10 9 9 5 5 6 8 10 9 10 12 12 15 18 16 14 13 13 14 11 11 13 12 11 10 9 8 7 7 7 4 6 11 11 8 9 13 15 15 16 17 17 16 17 17 16
7 3 7 15 14 9 10 5 1 3 2 3 4 5 3 1 2 2 2 1 2 2 2 3 2 4 3 3 6 5 3 6 5 5 5 3 3 3 5 7 9 9 9 9 8 2 4 6 8 9 10 11 14 15 15 17 20 17 14 14 16 14 12 12 12 12 12 11 10 8 8 4 4 3 7 9 7 7 9 10 10 11 14 14 15 17 17 15
3 4 6 12 15 11 8 2 2 1 3 3 1 4 2 2 1 1 2 1 1 2 2 1 3 3 3 2 6 5 3 5 6 6 7 4 2 6 9 9 9 9 8 7 6 5 5 6 8 8 10 11 12 13 13 15 17 15 13 14 16 17 16 13 12 10 9 12 12 8 9 6 7 5 5 6 6 6 6 7 7 6 7 9 11 13 14 15
4 4 4 9 13 10 6 1 2 1 3 1 2 3 1 3 3 3 1 2 2 1 2 3 3 1 3 2 4 7 4 3 4 4 6 6 2 4 6 6 6 8 7 4 5 6 4 6 7 8 9 9 10 11 10 13 14 11 13 16 17 20 21 18 13 8 6 11 14 11 9 7 7 8 5 5 5 3 4 6 7 6 4 6 8 7 6 8
3 4 1 5 8 8 4 4 5 1 3 2 2 4 2 1 4 6 5 3 4 5 4 3 3 2 5 4 4 8 6 4 4 3 4 6 4 4 5 2 4 8 5 7 8 7 6 6 6 8 10 10 10 7 6 8 8 10 16 21 22 22 21 17 14 8 5 10 14 11 9 8 10 12 10 6 7 4 1 2 2 3 4 3 4 2 2 2
3 2 4 3 4 6 4 3 5 3 1 2 1 1 1 1 4 0 4 2 1 4 3 2 3 3 5 6 6 7 7 5 5 5 5 6 5 5 5 3 7 9 4 6 8 7 6 7 9 11 12 10 9 9 9 9 9 11 15 19 23 23 16 11 11 11 9 10 12 11 8 8 8 12 12 8 6 4 4 7 10 7 5 5 4 5 3 2
3 4 5 4 3 4 3 3 5 4 2 2 0 1 1 1 3 4 1 1 1 4 3 1 3 4 4 5 6 6 6 6 7 7 7 6 5 5 5 7 9 6 1 4 9 7 6 8 11 15 17 16 16 15 14 12 13 15 14 15 19 20 18 13 13 13 12 12 12 13 14 11 8 8 10 6 5 7 8 7 8 7 6 6 6 4 1 4
4 4 4 2 3 3 4 5 6 4 3 4 1 1 1 1 0 2 1 1 1 2 2 1 2 4 5 6 6 6 6 6 6 5 5 6 7 7 6 7 8 5 4 7 9 7 8 9 11 15 17 19 20 17 15 14 14 16 15 15 18 16 18 17 15 17 17 14 12 14 16 12 11 9 8 13 8 6 8 8 6 7 7 6 4 3 3 3
4 3 4 2 2 3 3 3 4 4 4 3 1 0 1 1 1 1 0 1 2 1 2 4 3 4 6 7 5 6 7 6 5 3 4 5 7 7 7 7 6 5 6 9 8 7 8 9 11 15 16 19 20 17 17 18 16 16 16 15 15 14 15 15 16 20 22 19 16 14 14 11 12 13 2 11 9 7 6 8 8 8 8 6 3 3 6 6
4 4 4 3 3 3 2 3 2 3 3 1 0 1 1 2 2 2 2 3 3 1 3 6 5 6 8 7 6 7 7 7 7 5 5 6 6 6 6 6 4 4 5 6 6 6 7 8 11 13 12 15 18 19 20 19 17 16 17 17 15 15 16 15 14 16 19 21 21 18 16 13 12 14 8 7 8 8 7 9 8 8 8 9 7 7 8 9
6 5 3 2 3 2 3 3 1 1 3 1 1 1 0 1 2 3 4 3 4 4 4 6 6 6 8 8 8 9 8 8 8 8 8 8 8 7 5 5 6 6 6 5 6 6 6 7 10 11 10 11 14 17 20 20 19 19 18 18 19 17 17 16 14 14 16 19 20 18 16 13 11 11 10 8 9 9 9 9 9 9 10 11 12 12 12 9
6 4 1 3 2 1 3 2 1 1 2 3 2 1 1 1 1 3 4 2 3 5 4 6 7 6 7 9 8 8 9 9 9 10 9 9 10 10 9 9 10 9 8 7 6 6 6 7 7 8 10 11 13 14 15 16 16 16 15 16 18 19 18 17 15 15 16 16 16 15 14 11 7 8 9 10 11 11 11 10 10 10 11 12 13 13 11 9
Wind_Direction
13 11 9 7 5 3 0 357 353 349 347 346 345 343 341 338 335 332 331 328 328 324 324 327 326 326 324 325 320 313 318 299 271 239 231 243 241 229 240 241 217 189 165 177 183 177 186 193 199 198 204 214 222 240 225 217 238 249 242 250 260 8 325 264 261 353 94 133 150 134 158 137 136 145 111 138 148 131 143 129 116 109 98 123 143 142 144 149
12 10 8 6 4 2 360 356 353 349 345 344 342 341 339 337 334 331 329 327 327 325 325 325 325 324 324 326 315 314 320 283 263 253 240 241 243 233 236 228 202 181 174 189 189 182 188 189 193 195 205 217 210 229 227 208 219 240 249 246 224 154 218 223 258 20 90 148 130 133 180 140 133 142 147 175 138 135 146 124 125 114 100 121 143 146 145 153
11 9 7 5 3 2 359 356 353 349 345 342 341 339 337 335 333 329 326 325 325 326 325 323 324 322 325 325 312 318 317 281 262 253 236 230 240 266 253 214 191 180 181 194 192 188 193 190 192 195 206 220 207 218 221 202 213 231 248 258 353 252 231 216 45 27 51 87 119 140 174 118 134 154 160 165 136 154 153 136 146 127 123 135 146 150 147 157
9 7 5 4 2 0 358 355 352 349 345 340 339 337 335 334 331 328 324 322 322 325 325 323 323 322 326 325 315 323 293 277 244 97 66 266 257 271 260 208 186 183 190 200 195 195 201 195 195 201 213 225 209 218 224 209 218 228 241 252 216 248 252 210 63 54 39 13 93 128 145 138 153 162 166 160 138 177 159 141 154 137 138 144 149 156 151 159
8 6 4 2 1 359 356 354 351 349 345 340 338 335 333 332 329 326 320 318 321 324 322 320 322 323 327 324 322 304 273 265 112 69 24 338 285 258 236 201 185 185 197 207 198 197 205 199 198 206 221 234 213 214 228 220 228 246 251 257 244 235 275 334 39 62 34 23 95 128 153 146 145 157 189 177 139 207 167 134 147 139 141 151 155 160 157 163
7 5 2 1 360 357 355 352 350 348 345 341 337 333 331 329 326 322 317 317 319 321 320 319 322 323 328 330 319 263 267 285 78 30 2 352 313 234 213 195 183 185 201 209 201 198 203 200 197 207 218 234 226 219 226 219 226 251 254 254 261 266 266 254 173 77 338 19 126 142 139 131 151 167 179 193 134 112 121 123 138 141 145 156 157 164 165 165
5 4 1 359 358 356 353 350 349 347 345 341 336 331 328 326 324 321 317 316 318 320 318 318 324 329 335 327 290 241 253 270 73 29 1 352 331 215 196 187 179 184 202 207 202 197 201 200 198 208 215 226 232 227 228 223 222 241 261 259 266 279 245 236 233 103 258 258 189 61 127 171 180 170 153 185 153 87 108 123 134 141 148 157 160 169 168 164
3 2 359 358 357 355 352 349 349 346 345 340 334 330 327 325 323 319 316 317 320 321 323 329 337 338 340 312 273 250 241 65 60 25 5 2 350 185 176 178 180 187 201 206 202 197 200 203 200 207 217 224 234 233 231 231 226 231 253 265 269 274 263 252 255 238 234 232 235 223 212 196 189 183 154 174 157 105 120 127 134 143 150 158 163 168 168 167
2 0 358 357 356 354 351 349 347 344 343 339 334 332 329 327 322 318 316 320 325 326 342 341 289 340 333 285 274 269 127 55 35 14 13 19 47 164 165 174 183 189 202 206 203 201 200 203 203 211 225 228 234 238 233 231 231 228 239 251 256 257 256 246 240 237 233 227 227 224 223 203 188 209 184 172 155 133 135 132 137 147 152 158 164 168 171 170
360 358 356 356 355 354 351 349 347 344 342 338 336 333 331 330 325 322 320 327 336 335 339 303 297 317 286 267 274 276 67 35 360 11 21 54 118 158 170 177 183 192 205 206 205 206 206 208 206 215 236 242 245 245 237 231 236 234 235 246 255 258 253 244 237 232 232 226 224 243 245 216 188 202 205 175 158 151 150 142 144 151 154 159 165 169 172 174
358 356 355 355 354 353 350 349 347 343 341 338 335 334 335 335 330 329 327 332 345 331 317 289 283 282 270 268 272 309 40 355 323 353 19 106 139 167 182 183 187 201 209 205 209 210 212 216 212 218 235 246 257 252 241 238 247 253 254 257 254 255 250 243 240 234 234 223 205 233 254 246 210 202 201 176 160 156 156 152 154 157 157 160 166 169 172 177
357 355 353 354 353 352 350 348 347 344 343 338 336 338 338 334 328 327 321 282 321 330 315 274 274 275 271 262 261 2 9 329 319 317 235 162 178 184 193 193 196 209 213 209 211 213 218 221 220 225 224 227 244 247 247 243 247 252 259 267 256 249 243 234 233 230 231 223 194 209 235 245 232 211 193 171 158 158 161 158 160 163 159 161 166 168 173 178
356 354 353 353 352 352 351 348 347 345 344 338 336 339 336 330 322 309 290 252 316 331 318 244 268 252 265 269 101 24 355 326 322 270 223 203 205 195 202 206 206 214 220 222 215 214 222 225 227 232 231 231 233 251 338 261 245 247 247 256 256 248 239 229 226 220 223 221 201 209 219 234 240 218 189 166 157 164 166 162 166 165 162 163 166 168 175 179
354 353 352 352 352 351 350 348 347 345 346 339 335 337 332 326 310 290 274 259 314 326 321 165 259 239 262 264 92 56 9 319 240 226 230 228 208 196 201 206 213 215 220 232 231 221 223 228 233 239 239 241 251 291 323 253 234 238 238 240 246 249 241 225 215 210 214 211 203 214 222 220 238 220 187 164 164 175 170 166 170 167 164 166 167 170 176 179
353 353 352 352 352 351 349 347 344 344 347 338 332 334 329 324 303 278 264 269 317 323 137 299 229 238 262 191 114 106 201 228 228 207 291 242 207 195 194 198 207 209 216 232 240 233 224 227 231 238 237 234 251 272 267 241 224 223 231 229 228 236 248 230 209 203 208 202 200 214 229 205 234 242 190 164 173 181 174 172 171 170 167 167 170 171 177 180
352 350 351 352 352 352 348 345 339 340 347 337 332 333 326 326 302 269 262 279 318 330 185 254 223 243 279 59 120 203 235 287 315 301 260 235 227 211 184 189 194 197 210 220 230 235 221 224 229 235 238 227 232 245 244 236 219 213 224 229 224 220 237 239 204 195 203 201 200 210 227 188 203 250 196 165 183 186 180 179 171 172 170 168 174 172 177 181
350 349 350 350 351 352 346 342 336 335 344 337 332 332 319 326 308 258 256 269 298 270 232 269 274 256 266 349 187 224 325 335 328 292 233 212 234 221 174 184 188 186 198 208 216 223 207 211 225 228 233 227 220 222 231 230 215 206 215 227 231 221 224 232 197 185 199 206 204 207 220 186 173 232 204 171 185 188 186 185 173 174 172 170 178 174 177 181
350 349 349 349 350 350 345 340 333 333 341 336 330 323 305 308 303 265 257 256 253 236 238 258 276 256 228 307 282 310 342 336 323 277 223 205 221 217 191 189 185 183 192 200 205 208 198 197 214 219 219 222 218 212 217 222 217 211 208 217 230 226 221 226 214 186 194 207 208 206 219 200 172 205 207 181 184 189 190 189 178 175 172 173 180 179 178 181
348 349 348 348 348 347 345 337 331 336 337 338 332 311 289 283 274 254 248 233 218 243 263 233 258 282 323 12 349 333 326 311 288 235 205 200 207 212 202 191 187 189 194 193 192 197 197 196 207 217 213 212 215 213 218 224 229 226 219 218 223 226 222 223 226 194 187 207 210 205 218 211 189 195 200 187 183 190 194 190 187 178 172 176 182 182 179 182
347 349 347 346 346 344 343 333 333 343 334 335 328 302 274 287 268 226 250 244 240 309 309 308 315 306 315 346 348 333 307 246 242 205 178 186 198 203 195 190 193 196 204 200 188 189 199 205 207 214 215 212 214 219 228 235 244 254 244 233 222 228 228 217 225 202 182 210 214 207 214 209 205 199 197 214 198 188 194 194 193 183 174 179 183 182 178 185
347 349 347 345 343 340 339 332 331 348 340 324 320 312 1 2 332 345 335 281 237 304 283 308 325 293 312 332 340 339 316 225 140 102 157 183 193 197 182 189 200 197 209 209 194 188 202 217 214 215 218 218 218 220 230 239 245 252 253 252 229 225 231 215 223 208 174 211 223 213 220 214 213 200 185 217 215 194 196 196 193 187 180 180 184 183 178 184
347 348 346 343 341 338 335 330 323 344 345 316 313 352 35 8 336 328 326 286 241 226 252 260 259 263 327 305 326 325 285 255 148 125 159 198 200 198 176 191 211 203 203 210 203 192 204 224 222 217 218 223 225 219 224 234 240 240 238 255 245 225 231 216 224 223 188 198 225 215 223 220 219 212 196 208 214 203 201 199 194 191 186 182 181 184 183 185
346 347 345 343 341 336 330 331 323 320 332 321 333 18 3 347 329 309 294 280 270 210 220 231 238 274 359 233 2 299 274 268 178 120 142 216 218 216 203 203 220 216 205 207 208 205 208 220 223 222 216 218 227 221 219 225 233 239 230 240 244 230 233 216 217 228 204 192 233 227 228 224 216 214 211 213 216 209 201 202 202 194 190 182 175 183 188 188
345 346 344 343 339 333 332 330 307 275 299 310 355 25 344 326 322 307 283 274 265 191 188 225 248 293 354 341 293 281 283 297 282 94 135 227 230 225 231 231 227 223 216 212 216 221 224 219 216 221 217 214 223 219 217 222 222 232 232 234 242 234 234 231 224 224 204 202 232 240 240 232 219 214 209 210 220 216 196 198 207 199 193 179 170 185 193 195
344 344 343 342 338 334 331 318 285 293 302 276 359 13 340 322 317 305 286 267 242 170 159 169 218 244 360 285 248 274 289 236 252 27 155 244 262 247 234 242 237 229 221 216 222 229 229 228 216 215 215 213 220 218 214 222 222 224 227 230 244 249 242 240 239 230 214 212 214 222 238 234 219 220 213 202 213 217 197 194 208 204 191 175 171 186 194 199
341 343 343 341 338 333 322 312 335 321 296 272 11 348 331 325 309 290 280 259 208 152 158 175 200 157 45 271 259 286 267 199 179 205 220 248 280 276 251 235 227 233 235 220 223 235 229 231 224 213 216 210 215 222 212 217 231 224 216 217 231 251 256 248 243 234 227 233 214 209 226 240 221 219 218 209 211 215 202 193 204 206 186 173 180 188 192 200
340 343 342 339 340 335 323 328 333 311 289 4 360 331 324 326 300 260 254 252 195 147 163 151 96 345 342 328 295 279 289 81 171 200 213 237 245 248 250 245 228 227 244 237 226 225 221 230 221 204 218 217 213 221 208 207 227 234 217 214 218 232 245 248 248 241 233 248 238 214 213 232 236 218 211 212 212 212 206 196 202 205 185 179 190 189 191 199
339 343 340 337 337 325 312 310 312 310 334 351 334 322 325 313 271 231 250 263 144 138 164 102 78 271 270 283 270 279 322 312 241 174 146 232 237 233 237 250 256 244 237 240 238 217 208 226 226 206 212 223 215 212 208 207 221 236 231 225 220 225 233 238 244 250 244 246 247 226 215 221 237 230 216 211 208 209 209 202 201 202 187 180 190 193 195 199
340 342 337 334 324 265 290 285 284 303 335 327 314 320 320 287 249 230 255 272 132 137 7 87 146 203 263 257 228 274 309 269 266 27 187 221 219 239 255 262 272 267 249 243 247 239 211 216 227 220 210 222 222 210 214 219 221 231 235 226 231 241 236 235 237 242 246 245 243 236 227 220 227 234 229 218 209 207 207 203 200 198 187 178 189 200 197 193
340 338 333 326 303 280 283 253 250 295 318 312 307 313 300 260 242 235 238 242 125 121 91 55 202 236 287 264 195 172 287 259 302 311 254 220 199 227 260 269 268 270 264 250 245 252 249 222 218 226 215 217 229 221 216 224 223 223 232 222 217 236 234 234 236 235 243 242 237 237 235 231 228 224 222 226 223 211 206 207 200 189 181 181 191 207 203 188
339 333 325 305 273 304 294 257 294 325 315 304 304 299 277 236 240 252 252 163 118 132 153 92 36 259 300 290 216 89 276 240 304 290 252 216 204 214 229 227 227 242 251 250 240 242 249 240 219 223 223 218 230 231 215 214 218 219 224 222 216 220 220 227 225 221 233 238 231 231 236 239 237 225 217 221 222 217 215 210 196 188 187 185 185 204 212 193
338 329 317 277 231 265 283 298 328 321 309 301 296 284 259 232 235 245 216 161 182 115 115 79 51 9 329 287 257 6 299 242 352 295 280 273 236 215 248 259 255 243 234 235 229 223 232 239 231 222 218 215 224 229 210 202 210 214 215 217 218 213 211 217 215 214 226 235 230 223 227 235 240 237 234 228 216 212 217 211 198 196 192 181 178 197 212 197
338 328 316 253 213 245 272 296 311 305 305 296 281 263 252 253 249 264 66 127 56 52 67 18 1 337 304 270 214 360 274 248 354 310 277 281 267 229 313 329 323 289 268 262 245 223 215 222 226 227 214 204 214 222 210 197 197 207 210 208 212 212 210 211 212 219 225 226 226 223 224 231 237 235 233 237 235 217 207 204 210 208 190 177 178 191 206 197
340 327 309 234 236 255 273 289 296 297 296 281 263 245 241 249 252 354 26 73 65 67 104 331 298 264 259 283 27 354 266 181 14 297 255 235 245 216 164 60 353 299 282 284 268 242 235 219 209 217 213 194 206 221 226 215 201 205 212 215 219 220 219 217 212 218 227 223 215 215 221 227 230 226 221 226 238 240 214 192 211 217 187 174 178 185 200 198
343 327 277 240 251 267 280 286 292 286 274 259 252 242 240 253 271 48 51 67 67 79 140 276 279 255 202 160 94 33 309 91 95 285 266 241 262 258 131 54 18 335 295 279 276 258 256 252 209 204 208 203 203 213 227 233 220 201 205 219 221 221 231 242 239 230 232 234 215 207 216 226 230 233 225 219 220 232 230 189 207 217 182 174 185 189 198 197
340 311 246 234 270 306 305 296 292 268 253 246 245 242 238 349 14 28 35 19 1 334 300 242 248 256 214 167 143 123 111 297 314 291 241 214 294 346 36 25 4 349 328 302 295 281 253 256 248 210 206 206 202 203 215 230 235 202 200 218 219 222 237 247 250 241 236 238 225 208 212 215 221 225 221 218 213 216 219 204 206 207 181 184 192 188 192 195
329 309 260 250 318 327 316 311 289 242 239 247 249 270 348 49 30 15 20 342 338 330 294 263 182 273 274 251 168 104 44 280 259 290 246 176 159 24 27 10 9 352 334 326 300 288 279 270 282 271 225 212 204 207 214 225 239 232 206 205 206 220 237 245 247 237 232 237 228 216 219 208 205 209 199 202 207 210 212 210 210 205 194 196 194 187 191 194
310 292 252 309 345 336 325 318 274 237 238 248 241 299 350 28 37 18 15 343 309 263 276 279 72 5 280 288 331 55 348 301 81 355 273 190 142 58 345 343 11 350 329 320 292 283 307 289 269 267 254 231 213 216 220 217 226 242 243 213 202 214 221 226 237 234 228 234 225 221 228 217 203 202 193 196 202 209 212 211 213 210 206 207 204 197 194 193
287 264 215 31 3 345 325 290 262 246 241 254 253 145 50 43 48 26 359 334 299 279 294 335 34 262 228 327 333 16 19 320 338 328 279 231 121 69 25 347 325 336 333 313 291 288 298 283 262 241 239 239 225 219 225 215 212 230 245 240 227 225 215 211 224 236 237 238 230 219 220 222 214 204 205 203 200 206 209 208 213 215 210 211 211 207 199 194
281 260 51 26 4 348 307 268 252 248 239 281 336 78 89 76 70 43 1 334 308 305 333 2 2 260 282 355 298 278 55 326 310 298 265 272 197 97 43 7 328 326 325 301 281 280 273 263 268 260 241 236 231 212 220 229 216 216 230 238 234 226 219 216 216 222 235 243 241 233 222 221 214 203 208 207 193 201 210 209 212 217 217 214 209 206 204 198
294 277 36 17 356 331 291 266 248 265 258 11 27 71 67 36 56 79 63 328 312 15 347 331 333 327 339 317 284 324 1 294 284 279 262 261 287 46 51 16 344 326 318 294 265 263 272 264 264 262 247 232 230 219 218 228 230 222 221 224 224 218 216 219 213 212 225 239 243 249 248 232 200 184 199 201 182 183 202 208 209 213 219 218 207 202 205 202
290 308 22 4 346 319 293 277 223 298 331 47 51 68 61 359 12 52 112 283 317 60 346 295 359 341 315 317 331 358 322 285 288 287 279 274 302 349 58 32 347 322 310 287 270 340 2 296 273 264 261 252 240 233 231 236 239 239 239 233 226 224 222 219 216 211 214 225 234 250 256 240 82 107 192 195 190 183 185 200 208 210 213 215 207 202 203 202
324 10 28 1 342 316 287 265 134 286 37 43 59 76 57 238 168 243 225 248 238 164 248 234 83 338 300 1 332 317 300 298 293 286 290 281 295 10 27 18 345 313 302 292 295 8 12 271 257 258 266 269 253 250 265 265 249 244 252 245 230 228 230 228 229 228 221 218 214 223 241 211 113 120 183 173 174 185 175 182 206 218 216 215 210 202 198 200
356 344 44 21 355 330 289 330 47 112 77 358 225 100 19 322 15 335 332 31 321 318 339 342 50 357 302 352 305 289 300 306 281 284 302 295 313 16 357 353 341 305 308 355 349 347 326 253 246 246 247 246 236 239 258 255 242 241 246 237 230 230 231 229 231 240 249 237 223 212 221 210 143 134 145 140 149 162 155 170 194 205 210 225 219 204 203 205
306 283 18 41 22 15 5 358 356 29 117 155 171 120 156 112 31 337 338 28 328 333 4 342 8 334 296 305 276 273 280 283 285 299 306 290 275 283 292 331 321 289 319 14 338 307 290 269 259 247 234 225 219 225 252 250 245 248 234 225 226 227 228 232 232 228 237 247 244 228 212 215 191 165 158 189 213 212 134 82 102 165 170 204 240 282 310 212
319 330 349 14 39 39 33 5 359 1 97 148 158 109 234 163 113 153 305 346 301 306 312 310 327 282 269 288 283 275 279 280 278 273 277 278 268 278 288 273 270 277 333 354 302 281 277 269 263 258 251 254 267 285 301 307 300 273 243 234 235 227 226 247 241 228 226 227 237 243 244 261 233 183 173 197 201 139 79 47 40 44 66 78 41 357 340 117
338 9 8 357 352 22 31 22 18 8 23 62 68 35 326 298 121 134 246 314 323 301 300 314 309 283 277 297 295 290 290 272 258 261 273 280 281 280 259 245 261 263 149 274 263 252 262 261 256 254 253 260 271 278 287 296 293 281 271 274 268 239 221 234 239 234 236 223 220 230 237 256 259 193 152 108 65 66 56 38 38 36 35 58 55 9 323 154
13 28 37 338 307 12 29 17 25 38 48 58 58 257 237 274 6 127 159 214 262 315 330 216 253 292 311 311 300 294 288 270 258 267 286 291 298 297 269 252 257 226 199 255 255 241 251 257 260 260 257 259 262 267 281 285 279 276 273 284 293 263 223 226 243 242 238 230 220 222 228 243 257 226 126 74 32 12 27 10 10 27 17 23 38 353 304 205
22 36 47 357 327 30 38 23 40 66 57 51 91 225 309 359 26 52 92 262 245 19 342 296 286 311 306 301 300 289 282 282 273 272 291 289 290 293 285 272 259 230 244 265 268 266 263 254 258 263 262 260 261 266 277 274 267 270 266 264 283 275 239 235 251 246 239 237 235 238 247 260 264 251 197 56 16 340 352 337 339 6 358 348 3 353 340 336
20 29 21 22 47 35 30 53 61 99 95 49 194 99 335 324 7 7 327 294 284 311 316 296 303 312 300 296 293 280 282 296 298 296 298 289 280 277 278 280 270 249 254 261 267 275 272 260 259 262 260 258 264 270 268 260 255 261 262 258 258 255 245 247 255 249 238 236 236 242 252 261 265 263 278 5 354 318 315 320 329 344 343 341 340 333 332 331
39 48 352 340 53 356 321 40 64 175 112 87 268 110 212 291 13 315 288 289 299 300 300 296 299 304 298 293 286 283 290 298 294 293 291 283 281 280 277 278 278 273 268 265 263 255 257 270 268 264 261 257 261 266 258 249 250 250 249 252 250 243 241 245 248 245 238 233 234 237 240 244 260 280 296 322 323 310 315 329 334 337 338 333 320 309 304 303
37 64 11 318 35 341 301 14 36 297 52 51 50 105 251 247 72 290 284 296 293 288 293 293 295 298 293 289 291 295 300 300 296 295 292 282 276 274 268 262 261 263 263 263 267 256 251 267 268 261 263 258 258 267 262 252 248 243 238 244 246 243 243 245 245 244 240 235 233 235 234 235 271 324 328 321 323 328 332 336 338 334 325 315 311 311 309 311
Height
818 815 813 810 808 806 804 801 800 797 796 795 793 792 791 789 788 787 785 784 783 780 779 778 777 777 776 775 773 772 771 771 770 769 767 762 760 761 761 761 762 763 765 765 766 766 766 766 765 763 764 762 762 758 753 752 753 759 771 783 788 791 784 774 765 747 757 763 743 739 737 741 749 741 734 734 740 745 748 748 748 749 750 757 760 761 768 775
818 816 813 810 808 805 804 801 799 797 795 794 792 792 790 789 788 786 785 783 782 780 779 778 777 776 775 774 772 771 770 769 768 765 761 759 759 759 759 760 761 762 763 764 762 761 763 763 762 762 763 763 761 758 755 751 754 763 770 777 780 783 775 761 751 736 745 753 739 738 735 736 744 740 736 743 750 748 753 755 752 757 759 760 761 762 769 775
818 816 813 811 808 805 803 801 799 797 794 793 791 791 789 788 787 785 784 782 781 780 778 777 776 775 774 773 771 770 770 768 765 759 756 757 759 758 758 759 759 761 761 761 760 759 760 760 759 761 764 764 760 757 757 753 754 759 764 772 770 767 761 745 737 734 734 734 735 740 735 739 743 734 736 747 752 750 755 758 756 764 767 765 764 762 769 776
818 816 813 810 808 805 803 801 799 796 794 793 790 789 788 787 786 785 783 782 781 779 778 776 775 774 773 772 771 770 770 767 760 754 756 756 756 756 756 757 757 760 760 759 759 759 758 758 758 760 764 765 758 755 758 754 753 755 757 765 763 758 757 742 732 734 731 728 733 737 737 745 740 731 737 745 758 759 750 750 753 761 765 766 766 764 768 774
819 816 813 810 808 805 802 800 798 796 794 792 790 789 787 786 785 784 782 781 780 778 777 775 774 773 772 771 771 770 770 767 756 750 755 754 753 754 754 755 756 758 759 760 758 758 757 756 758 761 766 765 759 759 759 750 748 755 752 750 749 747 757 748 731 734 733 730 734 738 741 740 733 736 739 741 764 766 744 741 745 751 760 763 765 766 768 773
819 816 813 810 807 805 802 800 798 795 794 791 790 788 786 785 783 783 781 780 778 777 776 774 774 772 772 771 770 771 771 764 752 751 754 752 752 752 752 754 755 758 759 759 756 756 757 755 761 766 767 765 761 760 757 747 746 759 752 740 739 737 752 750 732 735 734 734 739 739 736 732 737 744 739 739 753 749 734 736 741 745 755 759 762 765 767 772
819 816 813 810 807 805 802 799 797 795 793 791 789 787 786 784 782 781 779 778 777 776 775 773 773 772 771 770 770 770 767 757 750 753 753 750 751 749 751 753 754 758 759 757 754 754 756 757 763 764 766 766 761 756 752 746 745 758 754 741 738 734 742 740 732 736 735 737 738 733 734 736 744 745 740 743 742 734 732 735 740 745 751 757 762 765 767 772
819 816 813 810 807 804 801 799 797 794 792 790 789 787 785 783 782 780 778 777 776 774 774 773 773 772 771 771 769 765 759 753 751 753 752 751 750 748 751 754 755 758 757 755 751 751 754 758 761 760 765 764 756 753 749 748 749 754 755 744 738 737 736 733 733 736 735 736 734 734 740 740 739 738 740 744 739 734 733 735 741 746 752 757 762 765 768 772
818 816 813 810 807 804 801 798 796 794 792 790 788 786 784 782 780 778 777 776 775 774 773 773 773 772 772 770 766 762 755 752 753 754 753 753 751 750 752 754 756 757 755 753 750 751 753 756 757 754 760 757 751 751 747 753 756 748 749 744 739 739 735 734 735 735 735 735 733 739 743 738 732 736 743 739 735 736 734 739 744 748 755 759 763 765 767 770
818 815 812 810 806 803 801 798 796 794 792 790 787 785 783 781 779 777 776 775 775 774 773 773 772 771 771 768 765 762 754 752 754 754 754 754 753 753 754 754 756 755 753 751 749 749 750 752 751 747 752 752 749 749 746 751 749 739 741 742 739 739 734 734 737 735 735 733 735 746 747 738 730 739 750 737 730 736 738 743 746 750 757 760 763 764 766 769
818 815 812 809 806 803 800 797 796 793 792 789 787 785 782 780 778 777 776 775 774 773 773 772 771 772 770 767 765 759 753 753 755 754 755 754 754 755 754 755 756 755 752 750 749 748 748 747 744 746 754 753 751 751 746 743 740 737 740 743 741 740 737 735 738 735 735 736 737 747 749 740 734 742 747 734 728 733 740 747 748 752 756 758 762 763 766 768
817 814 811 808 805 802 799 797 795 793 791 789 787 784 782 780 778 777 776 775 774 773 772 771 771 771 769 766 762 756 753 755 755 754 755 754 754 755 754 755 755 754 751 749 750 748 749 746 743 751 753 750 755 755 747 737 739 741 742 751 749 742 741 737 735 734 736 738 732 741 757 756 747 742 737 729 729 733 739 747 749 752 754 757 760 763 766 767
817 814 810 808 804 801 799 796 794 792 790 788 786 783 782 780 778 777 776 775 774 773 771 771 770 770 770 764 756 754 755 755 755 754 754 754 753 754 754 755 754 754 752 749 749 748 749 746 746 750 745 748 755 748 743 738 742 746 745 754 755 751 747 733 729 731 734 735 725 737 769 774 753 738 730 726 729 735 742 746 748 751 753 756 759 762 766 766
817 814 810 807 804 801 798 796 794 792 790 788 785 783 781 779 778 777 776 775 774 773 771 770 770 770 769 760 753 755 755 754 755 753 753 753 752 753 753 753 754 754 753 751 749 748 750 747 746 748 744 747 746 739 746 748 746 751 752 754 756 761 750 727 722 730 735 731 720 736 769 774 753 735 727 725 729 736 743 745 746 749 751 755 757 761 765 764
816 813 810 807 804 801 798 796 794 792 790 787 784 782 780 779 778 777 776 775 773 772 771 770 770 769 765 756 752 754 754 752 752 752 753 752 750 751 751 752 753 753 753 752 751 749 749 748 749 754 751 745 745 751 759 756 748 750 760 762 756 758 748 725 715 723 733 729 719 738 763 763 749 736 724 723 729 735 741 744 743 746 749 753 755 759 763 763
816 813 810 807 804 801 798 796 793 792 789 786 783 781 779 778 777 777 776 774 773 772 771 770 767 767 764 756 751 753 752 750 750 751 752 751 750 748 749 751 751 752 754 753 753 750 749 750 751 754 753 751 754 761 763 761 756 750 758 762 753 752 750 733 715 711 722 727 725 736 753 756 750 739 725 724 730 733 739 741 741 745 747 750 754 756 760 762
815 813 810 807 804 801 799 796 794 792 789 786 783 781 779 778 776 776 775 774 773 772 771 769 764 765 762 752 751 753 749 749 750 751 751 751 751 748 749 750 750 752 753 753 753 751 750 753 756 755 754 755 754 760 770 771 762 752 752 754 747 743 746 739 723 711 714 725 732 734 742 751 751 742 726 722 727 731 737 738 738 742 745 748 751 753 757 759
815 812 809 807 804 801 798 796 794 791 789 785 782 780 778 777 776 776 774 773 773 772 771 768 764 768 764 753 753 753 749 750 750 750 751 751 751 750 749 748 749 751 754 755 754 754 755 755 758 761 759 758 754 757 770 766 752 750 749 751 747 739 739 738 728 716 714 725 733 737 741 742 745 746 734 722 723 730 734 734 734 738 743 748 749 751 754 756
814 811 808 806 803 800 798 796 794 791 789 784 781 780 777 776 776 774 772 771 770 770 769 765 762 766 764 755 752 751 749 750 750 749 749 749 750 749 747 747 748 751 757 760 758 755 756 758 761 765 762 758 753 750 754 747 737 738 737 741 745 740 734 729 720 710 712 727 732 737 743 738 739 742 732 721 721 729 731 730 732 734 739 745 748 749 751 755
813 810 807 804 802 800 797 795 793 791 788 784 780 777 775 776 773 771 769 765 763 763 762 760 758 759 757 754 751 750 748 748 747 746 747 748 749 748 747 748 750 753 756 758 758 752 752 762 763 760 755 749 747 744 742 737 731 731 733 734 735 737 732 721 714 704 705 726 732 729 736 736 736 734 730 726 723 727 732 732 733 733 736 742 744 747 750 754
812 809 806 803 801 798 796 795 793 791 789 785 781 776 777 780 779 777 773 765 758 759 760 757 757 757 755 754 752 751 750 748 746 745 748 747 746 750 750 749 755 758 754 750 750 748 752 762 756 748 744 740 740 740 740 738 735 736 739 737 732 733 728 715 711 704 703 726 732 725 732 735 731 730 735 736 728 726 729 731 733 732 735 738 742 745 749 752
811 808 805 802 799 797 795 793 792 790 788 785 782 779 781 784 785 783 781 773 761 758 759 757 757 756 752 753 753 752 753 751 749 747 747 746 746 750 750 751 756 756 749 746 749 753 758 758 747 738 736 736 736 736 740 742 740 741 741 742 738 729 724 716 711 703 703 725 733 727 733 734 725 722 727 730 725 722 721 722 727 730 733 737 742 745 748 751
810 807 804 801 797 795 793 791 791 790 788 785 782 783 784 786 786 784 784 779 766 758 757 757 757 756 753 754 753 753 753 751 751 748 746 748 747 747 749 751 753 750 747 747 749 755 759 751 738 732 732 737 740 736 739 743 743 743 741 746 743 728 728 729 721 708 703 719 729 727 730 728 720 719 720 718 715 715 715 717 719 722 728 733 738 741 745 750
809 806 803 800 797 794 791 791 790 788 788 786 784 786 787 787 786 784 783 777 767 757 755 755 755 755 756 755 753 753 752 749 750 748 746 748 747 745 747 748 750 750 745 743 744 747 748 737 729 731 732 736 742 739 741 746 748 744 740 743 742 730 729 729 720 711 709 719 725 728 738 732 721 723 722 715 712 710 711 716 718 718 721 727 733 738 743 746
808 805 802 800 797 794 792 791 788 787 787 784 784 786 786 787 785 785 784 776 767 758 755 756 755 755 755 754 753 750 751 750 748 746 745 745 746 747 747 744 747 750 744 740 743 743 739 726 721 731 734 735 742 741 741 745 747 746 739 737 737 731 727 725 719 717 728 738 727 731 757 750 724 723 722 715 715 713 710 716 721 719 719 725 733 737 740 742
807 805 802 800 796 794 792 789 787 787 785 782 785 786 786 787 784 784 785 776 765 759 759 759 757 757 756 754 751 748 754 754 745 744 745 744 744 746 750 745 742 747 740 735 739 739 733 724 721 731 734 735 742 742 738 739 747 747 734 728 734 734 731 729 726 729 744 747 724 722 753 756 732 723 718 712 717 716 711 715 719 717 719 728 735 737 740 741
807 804 801 799 797 795 792 789 789 787 783 783 786 786 786 785 784 784 785 778 765 758 758 757 757 758 757 754 749 752 762 756 745 744 743 745 745 744 752 748 741 742 734 733 743 737 729 728 727 731 736 737 741 741 734 735 747 744 724 722 732 736 738 735 731 735 738 736 724 715 732 751 743 724 711 710 717 719 714 715 716 714 717 728 732 733 736 738
806 803 801 799 797 797 795 793 792 786 784 786 786 786 785 784 784 782 785 784 768 755 755 756 756 756 753 751 749 752 756 750 751 750 741 744 746 744 753 749 742 741 731 737 749 734 725 733 730 729 738 738 733 733 729 732 743 736 719 720 728 733 737 735 736 739 734 737 743 725 720 745 748 721 704 705 714 722 719 714 714 713 715 723 728 729 732 733
805 802 800 799 797 797 796 795 792 787 787 788 786 787 784 783 783 780 785 783 763 754 758 756 756 757 753 751 751 752 750 748 753 748 739 743 743 743 750 745 741 741 733 735 743 730 720 724 722 725 736 736 728 726 726 730 735 728 719 723 730 733 735 735 739 741 740 748 754 733 718 738 750 728 712 710 711 716 714 708 708 708 711 719 724 725 728 729
803 801 799 798 797 796 794 792 791 789 788 788 787 786 783 783 783 784 788 776 756 756 759 755 757 759 756 754 753 754 754 751 750 745 742 742 741 742 743 739 741 744 739 735 736 730 718 713 714 720 727 728 724 722 720 723 725 723 724 731 739 740 737 739 739 740 754 760 750 733 718 730 747 733 715 711 703 699 702 704 702 703 710 718 719 718 718 721
802 800 798 797 796 795 792 788 788 788 788 788 786 784 782 782 780 783 781 763 754 761 759 758 761 758 758 759 756 755 756 753 751 750 747 742 743 745 743 743 744 748 749 743 738 733 725 722 719 716 716 720 724 723 717 717 720 725 731 737 746 749 745 749 746 747 767 766 742 730 721 726 743 731 708 700 691 687 693 698 699 704 711 715 715 715 711 713
800 798 795 795 795 794 792 788 787 789 788 787 786 782 782 784 779 774 765 755 760 765 760 763 764 760 762 760 758 759 758 756 753 753 751 746 745 743 745 748 747 754 757 747 740 736 731 727 721 717 714 717 728 731 724 722 724 730 736 742 755 762 762 768 762 756 764 756 733 724 726 731 734 718 700 692 686 684 685 687 692 698 703 707 711 712 708 709
798 795 793 793 793 793 792 790 789 789 787 786 785 779 781 788 779 760 751 755 765 764 761 765 763 762 764 760 760 762 759 758 756 755 753 752 750 746 749 750 748 756 757 744 739 737 734 728 721 722 718 714 725 734 733 730 730 735 737 743 756 763 772 779 768 758 756 745 727 719 725 734 729 709 696 691 683 677 676 680 685 686 692 701 705 707 706 707
796 794 793 792 792 792 790 790 789 788 787 785 783 780 785 788 771 753 753 759 765 764 764 767 764 763 764 762 763 763 761 761 759 758 755 753 753 749 749 755 754 755 752 748 742 736 739 735 722 722 719 714 721 726 724 723 726 730 727 732 744 746 756 765 757 754 751 738 726 723 728 734 727 706 688 684 681 673 669 673 678 678 682 694 699 703 705 705
794 793 792 791 791 789 788 788 787 787 787 783 781 782 784 778 759 753 761 762 764 766 764 766 766 764 763 763 765 764 765 765 759 758 756 754 753 747 748 759 761 759 758 758 748 735 739 731 707 705 708 709 719 718 713 718 725 722 718 728 736 729 732 738 734 730 731 731 726 722 722 715 704 692 678 678 681 676 672 673 678 679 679 689 698 700 702 702
794 792 792 790 789 787 786 786 785 786 784 781 783 779 771 768 762 761 767 767 767 769 767 766 766 764 761 760 763 765 766 765 761 760 756 755 756 753 758 765 765 765 765 765 757 744 745 732 703 699 704 702 711 714 710 718 722 715 719 730 724 714 719 731 731 718 718 734 725 712 715 708 699 696 682 679 683 680 680 682 684 683 682 689 695 695 698 700
793 791 790 788 787 786 785 784 783 784 782 779 783 776 762 764 769 768 769 770 770 771 771 770 768 768 767 763 763 766 767 763 761 764 758 756 763 764 766 769 767 769 768 768 764 750 748 743 716 708 713 701 697 706 708 708 710 711 719 719 711 713 717 724 737 733 732 742 725 706 711 712 714 714 692 685 691 687 683 684 685 684 686 690 690 691 695 696
794 791 788 786 786 784 783 784 782 781 779 778 780 775 767 768 771 770 771 772 771 772 772 770 770 772 773 770 766 767 770 766 762 767 762 756 766 770 770 772 771 769 767 769 767 752 750 756 733 715 720 709 695 707 716 708 703 706 706 701 708 729 733 728 739 743 742 746 731 715 711 706 709 710 696 694 698 692 686 684 684 684 685 687 686 687 689 690
793 788 783 783 785 784 783 783 781 777 778 777 772 769 770 774 775 774 774 774 773 773 772 771 773 774 772 773 774 769 773 774 768 769 766 761 769 774 773 776 776 772 769 769 769 757 754 764 751 722 715 715 708 714 723 715 706 704 703 701 705 715 722 724 729 732 736 741 734 725 719 708 697 690 688 690 688 687 688 685 684 681 679 681 681 680 682 684
789 783 780 782 784 783 782 781 778 775 773 772 769 768 773 777 778 777 776 776 775 776 777 775 776 775 771 775 777 770 773 778 774 772 770 765 769 774 775 778 779 776 772 769 768 762 757 764 763 736 718 722 723 720 724 722 714 712 715 718 715 708 706 713 717 716 724 734 733 729 726 708 681 671 676 679 676 678 681 681 682 678 673 672 671 673 675 677
786 781 781 783 783 783 781 779 777 772 767 769 771 773 778 780 779 780 780 780 777 776 779 779 778 778 777 778 776 772 777 779 774 772 768 763 767 776 780 781 781 780 777 772 766 764 763 765 763 750 734 732 726 715 713 715 711 710 714 715 714 710 709 720 725 714 712 722 724 726 727 700 664 657 666 669 670 672 672 673 675 673 669 667 665 667 669 671
785 781 783 785 783 782 780 778 775 770 770 776 777 779 784 784 782 783 782 780 780 779 780 780 781 783 782 782 779 778 782 780 774 772 768 767 771 776 780 782 781 781 780 775 765 762 769 772 769 761 745 732 721 709 707 710 705 705 708 706 705 704 704 718 728 716 709 716 713 717 725 700 664 658 665 666 667 667 666 668 669 668 665 663 661 662 663 666
784 782 784 786 783 780 780 780 777 775 780 784 780 781 787 783 782 784 781 781 783 781 779 777 781 786 784 783 785 783 782 781 777 774 772 772 775 777 779 781 783 782 779 776 771 770 776 778 776 769 751 734 724 715 712 713 710 712 712 706 703 702 697 700 706 703 706 711 711 723 732 705 673 666 667 666 666 665 665 667 669 668 664 661 661 660 661 664
788 785 781 784 784 778 779 782 780 780 786 786 781 785 789 784 784 785 780 783 784 779 780 780 782 788 785 783 787 784 782 785 783 778 779 781 781 781 781 783 787 785 780 782 784 784 783 779 776 775 767 754 745 740 735 727 720 721 717 707 702 699 697 698 697 702 714 709 703 721 731 704 676 671 672 671 671 670 668 666 667 669 668 665 662 660 662 663
791 788 780 779 780 779 782 782 779 781 786 788 786 788 791 789 791 791 786 788 787 782 787 789 785 789 787 784 787 783 779 784 785 784 787 788 786 783 781 785 790 786 783 788 790 788 788 782 778 780 777 766 758 757 754 741 730 723 713 706 703 698 701 704 703 714 729 720 703 708 714 697 676 674 680 681 678 676 673 669 668 668 669 668 666 665 665 664
789 790 787 782 779 781 784 781 779 783 785 788 791 791 791 791 793 794 792 793 792 788 790 790 787 790 790 788 790 788 781 783 788 790 791 790 788 785 783 786 788 785 786 791 791 788 788 784 780 781 777 767 762 760 753 745 742 734 720 712 706 699 702 710 714 719 724 721 714 705 703 701 688 678 683 685 682 683 682 679 678 676 673 672 673 672 670 668
790 794 797 797 792 788 786 782 784 788 787 790 798 798 796 794 792 795 797 796 794 792 791 791 792 793 793 792 795 795 791 790 791 790 790 789 786 785 784 785 785 785 788 791 788 787 789 786 779 776 773 765 761 755 747 747 749 742 731 725 715 704 706 716 720 717 712 719 724 707 699 708 701 683 686 694 692 691 691 688 686 683 679 677 678 677 674 672
796 799 801 805 804 798 796 794 793 795 794 796 803 803 799 797 797 798 799 796 793 793 795 797 796 795 795 795 798 800 799 798 795 792 792 791 789 787 786 783 783 785 787 787 782 781 785 783 775 770 767 760 753 750 748 750 749 742 735 733 726 714 711 717 721 715 709 716 719 705 699 708 702 687 689 700 700 696 695 692 686 684 683 682 682 682 678 673
801 802 799 802 805 803 803 802 799 801 803 805 807 806 803 801 800 799 798 798 797 796 799 802 799 797 796 796 800 806 806 802 799 797 796 796 795 794 792 788 784 783 785 785 782 779 780 779 773 772 769 761 753 751 752 751 748 743 738 733 731 724 717 719 721 714 708 708 706 702 705 708 701 689 686 693 698 696 694 692 688 688 689 687 686 686 683 679
809 810 808 805 805 805 802 799 800 803 805 808 809 809 808 807 806 804 801 802 804 802 802 804 801 799 798 797 801 806 804 800 800 798 797 798 798 795 793 792 788 785 785 787 786 786 787 783 774 770 771 766 757 753 752 749 746 745 741 734 731 729 724 723 722 715 711 710 706 706 713 710 697 687 684 689 695 697 696 697 695 693 693 691 692 692 690 688
818 820 819 812 809 810 805 799 800 800 802 807 809 811 813 812 812 813 807 802 805 806 806 806 804 802 800 798 801 803 799 797 797 795 793 795 795 792 791 790 788 788 787 788 788 788 791 790 780 774 776 770 759 753 747 740 738 742 742 737 733 731 729 725 721 716 713 713 712 715 718 712 698 691 693 695 697 699 701 701 699 697 696 696 697 696 693 691
822 821 821 817 812 810 806 800 798 799 803 809 813 814 814 811 811 815 813 807 805 805 806 806 805 805 805 803 802 802 798 795 794 792 790 790 788 787 787 785 784 787 787 786 787 786 789 792 788 784 781 769 755 749 741 738 745 745 736 733 732 730 727 723 717 713 710 711 717 719 714 706 701 701 703 703 701 703 704 703 702 701 699 697 696 694 692 691